EN

Hourly Weather Chiquinquira

Today, 23 November, Monday

Time Temperature Precipitation Wind Pressure Humidity
00:00 +11°C° 0 mm 1 mps 556 mmHg 96%
01:00 +10°C° 0 mm 1 mps 556 mmHg 95%
02:00 +10°C° 0 mm 1 mps 556 mmHg 95%
03:00 +10°C° 0 mm 1 mps 555 mmHg 94%
04:00 +9°C° 0 mm 1 mps 555 mmHg 94%
05:00 +10°C° 0 mm 1 mps 556 mmHg 92%
06:00 +11°C° 0 mm 1 mps 557 mmHg 90%
07:00 +11°C° 0 mm 1 mps 557 mmHg 88%
08:00 +14°C° 0 mm 1 mps 559 mmHg 79%
09:00 +16°C° 0 mm 1 mps 560 mmHg 71%
10:00 +20°C° 0 mm 1 mps 561 mmHg 62%
11:00 +20°C° 0.3 mm 1 mps 561 mmHg 64%
12:00 +20°C° 0.3 mm 1 mps 560 mmHg 66%
13:00 +20°C° 0.3 mm 1 mps 559 mmHg 69%
14:00 +19°C° 0.5 mm 1 mps 558 mmHg 75%
15:00 +18°C° 0.5 mm 1 mps 557 mmHg 81%
16:00 +16°C° 0.5 mm 1 mps 556 mmHg 87%
17:00 +15°C° 0.6 mm 1 mps 556 mmHg 90%
18:00 +14°C° 0.6 mm 1 mps 556 mmHg 94%
19:00 +12°C° 0.6 mm 1 mps 556 mmHg 97%
20:00 +12°C° 0.6 mm 1 mps 556 mmHg 97%
21:00 +11°C° 0.6 mm 1 mps 557 mmHg 97%
22:00 +11°C° 0.6 mm 1 mps 557 mmHg 96%
23:00 +11°C° 0.2 mm 1 mps 556 mmHg 96%

Tomorrow, 24 November, Tuesday

Time Temperature Precipitation Wind Pressure Humidity
00:00 +10°C° 0.2 mm 1 mps 556 mmHg 96%
01:00 +10°C° 0.2 mm 1 mps 555 mmHg 96%
02:00 +10°C° 0 mm 1 mps 555 mmHg 95%
03:00 +10°C° 0 mm 1 mps 555 mmHg 95%
04:00 +10°C° 0 mm 1 mps 555 mmHg 94%
05:00 +10°C° 0 mm 1 mps 556 mmHg 92%
06:00 +11°C° 0 mm 1 mps 557 mmHg 91%
07:00 +12°C° 0 mm 1 mps 557 mmHg 89%
08:00 +14°C° 0.1 mm 1 mps 559 mmHg 81%
09:00 +18°C° 0.1 mm 1 mps 560 mmHg 73%
10:00 +20°C° 0.1 mm 1 mps 561 mmHg 65%
11:00 +20°C° 0.6 mm 1 mps 560 mmHg 70%
12:00 +19°C° 0.6 mm 1 mps 559 mmHg 74%
13:00 +19°C° 0.6 mm 1 mps 558 mmHg 79%
14:00 +18°C° 1.3 mm 1 mps 558 mmHg 83%
15:00 +18°C° 1.3 mm 1 mps 557 mmHg 87%
16:00 +15°C° 1.3 mm 0 mps 557 mmHg 91%
17:00 +15°C° 1.7 mm 1 mps 557 mmHg 92%
18:00 +14°C° 1.7 mm 1 mps 557 mmHg 94%
19:00 +13°C° 1.7 mm 1 mps 557 mmHg 96%
20:00 +13°C° 1.9 mm 1 mps 557 mmHg 96%
21:00 +12°C° 1.9 mm 1 mps 557 mmHg 97%
22:00 +12°C° 1.9 mm 1 mps 558 mmHg 97%
23:00 +12°C° 1.6 mm 1 mps 557 mmHg 97%

Day after tomorrow, 25 November, Wednesday

Time Temperature Precipitation Wind Pressure Humidity
00:00 +12°C° 1.6 mm 1 mps 557 mmHg 97%
01:00 +12°C° 1.6 mm 1 mps 557 mmHg 97%
02:00 +11°C° 0.2 mm 1 mps 556 mmHg 96%
03:00 +11°C° 0.2 mm 1 mps 556 mmHg 96%
04:00 +11°C° 0.2 mm 1 mps 556 mmHg 95%
05:00 +11°C° 0.1 mm 1 mps 556 mmHg 94%
06:00 +11°C° 0.1 mm 1 mps 557 mmHg 94%
07:00 +12°C° 0.1 mm 1 mps 557 mmHg 93%
08:00 +14°C° 0.1 mm 1 mps 558 mmHg 85%
09:00 +16°C° 0.1 mm 1 mps 560 mmHg 78%
10:00 +17°C° 0.1 mm 0 mps 561 mmHg 70%
11:00 +19°C° 1.1 mm 1 mps 560 mmHg 76%
12:00 +18°C° 1.1 mm 1 mps 559 mmHg 82%
13:00 +18°C° 1.1 mm 1 mps 558 mmHg 88%
14:00 +16°C° 1.5 mm 1 mps 557 mmHg 89%
15:00 +16°C° 1.5 mm 1 mps 557 mmHg 91%
16:00 +14°C° 1.5 mm 0 mps 556 mmHg 92%
17:00 +13°C° 1 mm 0 mps 556 mmHg 93%
18:00 +13°C° 1 mm 0 mps 556 mmHg 95%
19:00 +12°C° 1 mm 0 mps 556 mmHg 96%
20:00 +12°C° 1.7 mm 0 mps 557 mmHg 96%
21:00 +11°C° 1.7 mm 0 mps 557 mmHg 97%
22:00 +12°C° 1.7 mm 1 mps 557 mmHg 97%
23:00 +11°C° 2.2 mm 0 mps 557 mmHg 97%

26 November, Thursday

Time Temperature Precipitation Wind Pressure Humidity
00:00 +11°C° 2.2 mm 0 mps 557 mmHg 97%
01:00 +10°C° 2.2 mm 0 mps 556 mmHg 97%
02:00 +10°C° 0.3 mm 0 mps 556 mmHg 97%
03:00 +10°C° 0.3 mm 0 mps 556 mmHg 96%
04:00 +10°C° 0.3 mm 0 mps 555 mmHg 96%
05:00 +10°C° 0.2 mm 0 mps 556 mmHg 95%
06:00 +10°C° 0.2 mm 0 mps 556 mmHg 94%
07:00 +11°C° 0.2 mm 0 mps 557 mmHg 93%
08:00 +13°C° 0.2 mm 1 mps 558 mmHg 88%
09:00 +14°C° 0.2 mm 1 mps 559 mmHg 83%
10:00 +16°C° 0.2 mm 1 mps 560 mmHg 78%
11:00 +16°C° 0.6 mm 1 mps 559 mmHg 82%
12:00 +16°C° 0.6 mm 1 mps 558 mmHg 86%
13:00 +15°C° 0.6 mm 1 mps 557 mmHg 90%
14:00 +15°C° 0.7 mm 1 mps 557 mmHg 90%
15:00 +15°C° 0.7 mm 1 mps 556 mmHg 91%
16:00 +15°C° 0.7 mm 1 mps 556 mmHg 91%
17:00 +13°C° 0.3 mm 1 mps 556 mmHg 93%
18:00 +12°C° 0.3 mm 1 mps 555 mmHg 95%
19:00 +10°C° 0.3 mm 0 mps 555 mmHg 98%
20:00 +10°C° 0.1 mm 0 mps 555 mmHg 97%
21:00 +11°C° 0.1 mm 1 mps 556 mmHg 95%
22:00 +10°C° 0.1 mm 1 mps 556 mmHg 94%
23:00 +10°C° 0 mm 1 mps 556 mmHg 94%

27 November, Friday

Time Temperature Precipitation Wind Pressure Humidity
00:00 +10°C° 0 mm 1 mps 555 mmHg 93%
01:00 +10°C° 0 mm 1 mps 555 mmHg 93%
02:00 +10°C° 0 mm 1 mps 555 mmHg 92%
03:00 +9°C° 0 mm 1 mps 554 mmHg 92%
04:00 +9°C° 0 mm 1 mps 554 mmHg 92%
05:00 +9°C° 0 mm 0 mps 555 mmHg 91%
06:00 +10°C° 0 mm 0 mps 556 mmHg 90%
07:00 +10°C° 0 mm 0 mps 557 mmHg 89%
08:00 +13°C° 0.1 mm 1 mps 558 mmHg 83%
09:00 +15°C° 0.1 mm 1 mps 559 mmHg 78%
10:00 +18°C° 0.1 mm 1 mps 560 mmHg 72%
11:00 +18°C° 0.8 mm 1 mps 559 mmHg 77%
12:00 +16°C° 0.8 mm 1 mps 558 mmHg 83%
13:00 +15°C° 0.8 mm 1 mps 557 mmHg 88%
14:00 +15°C° 0.9 mm 1 mps 556 mmHg 89%
15:00 +15°C° 0.9 mm 1 mps 556 mmHg 91%
16:00 +15°C° 0.9 mm 1 mps 556 mmHg 92%
17:00 +14°C° 0.6 mm 1 mps 555 mmHg 94%
18:00 +12°C° 0.6 mm 1 mps 555 mmHg 96%
19:00 +11°C° 0.6 mm 1 mps 555 mmHg 98%
20:00 +11°C° 1.2 mm 1 mps 556 mmHg 97%
21:00 +11°C° 1.2 mm 1 mps 556 mmHg 96%
22:00 +11°C° 1.2 mm 1 mps 556 mmHg 96%
23:00 +11°C° 1 mm 1 mps 556 mmHg 96%

28 November, Saturday

Time Temperature Precipitation Wind Pressure Humidity
00:00 +11°C° 1 mm 1 mps 556 mmHg 96%
01:00 +10°C° 1 mm 1 mps 555 mmHg 96%
02:00 +9°C° 0.1 mm 0 mps 555 mmHg 96%
03:00 +9°C° 0.1 mm 0 mps 555 mmHg 96%
04:00 +9°C° 0.1 mm 0 mps 555 mmHg 96%
05:00 +9°C° 0.2 mm 0 mps 555 mmHg 96%
06:00 +10°C° 0.2 mm 0 mps 556 mmHg 96%
07:00 +10°C° 0.2 mm 0 mps 557 mmHg 96%
08:00 +11°C° 0.2 mm 0 mps 557 mmHg 93%
09:00 +12°C° 0.2 mm 0 mps 558 mmHg 90%
10:00 +13°C° 0.2 mm 0 mps 558 mmHg 87%
11:00 +15°C° 0.3 mm 1 mps 558 mmHg 81%
12:00 +18°C° 0.3 mm 1 mps 558 mmHg 76%
13:00 +19°C° 0.3 mm 1 mps 558 mmHg 71%
14:00 +18°C° 0.8 mm 1 mps 558 mmHg 76%
15:00 +16°C° 0.8 mm 1 mps 557 mmHg 82%
16:00 +15°C° 0.8 mm 1 mps 556 mmHg 88%
17:00 +14°C° 0.6 mm 1 mps 556 mmHg 91%
18:00 +12°C° 0.6 mm 0 mps 556 mmHg 94%
19:00 +11°C° 0.6 mm 0 mps 556 mmHg 97%
20:00 +10°C° 0.6 mm 0 mps 556 mmHg 96%
21:00 +10°C° 0.6 mm 0 mps 556 mmHg 96%
22:00 +10°C° 0.6 mm 0 mps 557 mmHg 95%
23:00 +10°C° 1 mm 0 mps 556 mmHg 95%
Show more

We Need Your Consent

Meteoprog and our Service Providers may store and access personal data such as cookies, device identifiers or other similar technologies on your device and process such data to personalise content and ads, as well as provide social media features and to analyse the traffic.

  • Store and/or access information on your device

    Cookies, device identifiers or other information can be stored or accessed on your device for the purposes indicated above.

  • Personalised ads and content, ad and content measurement, audience insights, and products development

    Ads and content can be personalised based on a profile. More data can be added to better personalise ads and content. Ad and content performance can be measured. Insights about the audience who saw the ads and content can be derived. Such data can be used to develop or improve user’s experience, systems and software.

By clicking ‘I Agree’ you will allow the use of indicated cookies, device identifiers, web beacons or other similar technologies. Your settings can be changed in the browser on your device.

For certain purposes, legitimate interests may be relied on, rather than consent. You can read more about this in our Privacy and Cookie Policy.